Location: Unspecified
(41.1850°N, 73.2650°W)
Time: 02:04:32
(UTC+00:00)

SL-08 R/B - Pass Details

Date: 23 March 2026
Orbit: 946 x 992 km, 83.0° (Epoch: 13 April)

Event Time Altitude Azimuth Distance (km) Brightness Sun altitude
Rises 00:07:15 0° 164° (SSE) 3,606 7.2 -12.0°
Reaches altitude 10° 00:09:52 10° 157° (SSE) 2,662 6.5 -12.4°
Maximum altitude 00:15:29 41° 89° (E) 1,336 4.8 -13.5°
Drops below altitude 10° 00:21:09 10° 21° (NNE) 2,675 6.7 -14.5°
Sets 00:23:46 0° 15° (NNE) 3,627 7.5 -15.0°
